CAPE
618 585 442 579 760 880 981 804 919 1023 1310 1819 1874 1771 1861 1762 1919 1576 1413 1392 958 1290 713 859 1048 1743 2080 2019 1866 2269 2354 2209 1868
409 641 526 524 803 994 1010 960 1105 1154 1287 1800 1837 1749 2001 2118 2129 1885 1362 1371 1516 1180 1322 1033 1716 1716 2054 1970 2375 2423 2338 2086 1871
672 663 710 662 733 1009 1150 1080 1292 1413 1456 1730 1758 1699 1837 1948 1968 2160 1813 1688 1886 1513 1154 1666 1760 1863 1646 1730 1903 2059 2572 2013 2097
860 906 845 883 894 1104 1218 1231 1166 1491 1639 1694 1698 1591 1604 1637 1726 1819 2115 1801 1826 1936 1809 1663 1917 2031 1612 1491 1512 1373 1710 2018 1961
718 1119 1167 1148 1197 1259 1373 1497 1353 1548 1847 1775 1836 1694 1873 1769 1616 1699 1675 1940 1744 1896 1987 1949 1824 1818 1828 1645 1594 1209 1563 1615 1473
920 1234 1387 1427 1381 1489 1648 1708 1836 1722 2018 1894 1977 1737 1902 1805 1682 1810 1856 1684 1844 1897 2005 2123 1968 1955 2040 1956 1723 1748 1529 1588 1445
874 1244 1609 1712 1679 1838 1981 2045 2098 2096 2055 2117 1980 1938 1911 2022 2141 2097 2076 2028 2275 2383 2541 2536 2348 2219 2119 2045 1916 1729 1703 1777 1906
1422 1452 1485 1834 2062 2107 2169 2226 2191 2237 2106 2254 2154 2086 1941 1938 1996 1960 1875 1960 2009 2100 2291 2392 2406 2314 2080 1973 1745 1294 1288 1429 1865
1528 1698 1650 1955 2146 2195 2164 2183 2226 2080 2003 2086 2032 2134 2054 2029 2102 1975 1926 2019 2090 2135 2247 2306 2324 2224 1985 1897 1575 625 457 469 1278
1432 1743 1869 2056 2338 2340 2246 2179 2170 2169 2202 2190 2071 2100 1967 1928 1848 1564 1377 1336 1478 1540 1653 1640 1813 1902 1892 1883 1902 971 514 319 663
1640 1765 2079 2352 2267 2192 2234 2119 2057 2062 2051 2098 2073 2091 1950 1734 1674 1606 1529 1352 1325 1349 1214 1183 1344 1441 2311 2610 2367 1454 1138 683 868
1610 1959 2311 2409 2059 2181 2245 2208 2300 2148 1998 1965 1921 1782 1693 1612 1585 1505 1605 1624 1642 1596 1227 1132 954 1075 1807 2138 2408 1392 1116 892 1311
1647 2031 2373 2080 2096 2362 1746 1912 1939 1802 1890 2040 2020 1717 1676 1661 1593 1295 1207 1086 1000 1372 1152 1043 935 1127 1029 1002 1755 1416 959 670 1485
842 1983 2363 2237 2243 1450 1659 1917 1526 1707 1822 1855 1835 2035 1841 1971 1561 1493 1421 1073 768 712 562 798 641 827 1191 1588 1289 1086 809 631 683
872 928 2285 2400 2039 1742 2186 1712 1622 1717 1735 1911 1887 1746 1519 1449 1187 905 678 600 305 212 162 277 706 986 1099 777 737 722 715 317 284
1069 1204 1515 2506 2006 2181 2180 1927 1662 1627 1869 1670 1482 1529 1166 906 739 454 307 274 213 189 22 81 180 696 612 321 735 549 269 105 90
1271 1550 1688 2472 2362 2367 2337 1953 1506 1390 1362 1284 1201 1090 824 580 370 211 120 2 0 0 5 0 14 48 206 141 79 1 0 0 0
1814 1948 1974 2603 2803 2494 2241 1626 981 1010 1313 1231 969 904 663 450 203 154 7 0 0 0 0 0 0 0 0 0 3 0 0 0 0
2302 2428 2502 3125 3157 2482 1511 891 899 970 804 812 816 855 498 225 107 103 28 5 0 0 0 0 0 0 0 0 0 0 0 0 0
2201 2573 2693 3037 2470 2070 1003 856 957 773 774 925 942 653 585 97 0 4 21 21 9 5 0 0 0 0 0 0 0 0 0 0 0
CIN
-25 -19 -15 -3 -15 -15 -15 -36 -14 -17 -20 -20 -14 -9 -6 -4 -0 -0 -0 -0 -0 -0 -0 -0 -1 -0 -0 -0 -0 -0 -0 -0 -0
-51 -20 -22 -11 -12 -17 -20 -21 -28 -18 -20 -25 -17 -19 -6 -4 -1 -4 -0 -0 -0 -0 -0 -0 -1 -0 -0 -0 -0 -0 -0 -0 -0
-67 -62 -31 -23 -11 -18 -20 -14 -18 -22 -24 -26 -23 -18 -17 -3 -1 -3 -0 -0 -0 -0 -0 -0 -0 -1 -0 -0 -0 -0 -0 -0 -0
-47 -65 -45 -24 -24 -23 -16 -15 -12 -20 -27 -26 -25 -23 -12 -10 -2 -1 -3 -0 -2 -0 -0 -0 -0 -1 -5 -2 -1 -0 -0 -0 -0
-31 -29 -26 -24 -24 -26 -28 -25 -27 -28 -29 -24 -29 -26 -21 -15 -3 -1 -0 -1 -1 -1 -0 -0 -0 -0 -2 -4 -0 -4 -0 -0 -0
-32 -31 -21 -19 -21 -31 -45 -44 -48 -47 -46 -35 -35 -46 -24 -13 -7 -3 -0 -0 -1 -0 -3 -1 -0 -0 -0 -0 -0 -3 -5 -0 -0
-31 -33 -33 -27 -25 -40 -59 -65 -68 -66 -55 -39 -28 -29 -8 -0 -1 -0 -0 -0 -0 -0 -0 -0 -0 -0 -0 -0 -0 -0 -0 -0 -0
-31 -37 -32 -36 -44 -53 -69 -71 -75 -60 -37 -37 -30 -32 -29 -17 -5 -0 -2 -0 -0 -0 -0 -0 -0 -0 -0 -0 -0 -0 -0 -1 -0
-38 -37 -29 -40 -51 -69 -68 -76 -76 -68 -50 -35 -38 -33 -28 -15 -12 -7 -8 -0 -0 -0 -0 -0 -0 -0 -0 -0 -0 -9 -37 -51 -0
-41 -40 -41 -43 -54 -65 -68 -69 -67 -57 -42 -33 -33 -24 -14 -5 -5 -12 -18 -13 -5 -2 -0 -0 -0 -0 -0 -0 -0 -7 -51 -60 -15
-38 -37 -42 -43 -47 -66 -74 -65 -64 -70 -65 -44 -31 -9 -7 -7 -4 -0 -0 -2 -6 -5 -10 -11 -0 -0 -0 -0 -0 -2 -23 -52 -25
-25 -36 -41 -43 -45 -65 -62 -73 -77 -79 -80 -63 -38 -26 -15 -10 -2 -0 -0 -0 -0 -0 -0 -1 -0 -0 -0 -0 -0 -4 -28 -41 -6
-45 -23 -32 -45 -51 -78 -98 -90 -94 -93 -73 -59 -41 -37 -8 -0 -0 -0 -0 -0 -0 -0 -0 -0 -0 -0 -0 -0 -0 -0 -18 -40 -0
-76 -30 -24 -46 -67 -96 -115 -102 -105 -90 -57 -42 -32 -10 -4 -0 -0 -0 -0 -0 -0 -3 -3 -0 -1 -0 -0 -0 -0 -0 -12 -31 -22
-110 -64 -32 -44 -66 -82 -90 -120 -112 -86 -61 -31 -22 -16 -10 -0 -0 -0 -0 -0 -24 -50 -61 -36 -1 -0 -0 -0 -0 -2 -3 -44 -50
-98 -79 -39 -40 -48 -87 -102 -78 -102 -86 -52 -40 -36 -24 -28 -16 -4 -20 -41 -35 -52 -46 -190 -82 -36 -2 -1 -19 -0 -4 -38 -57 -79
-75 -78 -72 -42 -12 -44 -76 -73 -89 -120 -108 -72 -42 -34 -42 -49 -57 -120 -169 -16 -0 -0 -0 -0 -93 -61 -30 -37 -53 -0 -0 -0 -0
-73 -69 -60 -8 -1 -17 -57 -122 -147 -157 -107 -79 -70 -58 -51 -42 -108 -107 -179 -0 -0 -0 -0 -0 -0 -0 -0 -0 -0 -0 -0 -0 -0
-46 -39 -27 -1 -0 -0 -95 -166 -112 -113 -137 -105 -64 -32 -77 -91 -122 -133 -185 -0 -0 -0 -0 -0 -0 -0 -0 -0 -0 -0 -0 -0 -0
-40 -17 -9 -1 -0 -0 -83 -91 -33 -59 -77 -48 -16 -38 -33 -144 -6 -6 -147 -129 -0 -0 -0 -0 -0 -0 -0 -0 -0 -0 -0 -0 -0
Wind_Speed
18 23 20 20 20 14 13 8 12 13 10 9 9 5 4 2 4 9 11 12 16 15 14 13 13 10 10 7 9 8 6 5 5
14 19 23 19 18 9 12 13 9 10 11 12 9 9 5 2 5 5 11 12 11 13 15 18 17 15 12 10 10 10 7 6 5
13 15 19 18 13 11 13 13 12 14 11 12 11 9 8 5 4 6 8 11 11 15 17 15 19 17 15 14 14 13 8 7 6
17 16 20 17 14 13 12 13 11 12 12 10 13 11 9 5 5 6 7 10 13 15 15 15 15 17 17 16 14 12 11 8 8
18 19 17 20 14 12 10 10 11 13 14 12 10 13 14 10 7 5 6 7 9 13 13 11 13 17 16 16 15 14 13 9 8
21 19 19 20 17 14 9 9 10 10 10 11 14 15 18 16 11 5 3 6 9 10 11 11 9 10 12 13 14 15 14 11 10
18 19 19 18 16 13 11 9 10 10 11 12 14 15 15 16 15 9 7 7 8 11 14 14 13 13 12 11 14 16 16 17 16
11 15 16 17 19 18 16 15 14 12 11 14 16 15 11 8 16 14 13 12 10 10 11 15 15 16 16 14 15 16 16 18 19
13 15 17 19 17 17 15 15 15 16 15 14 14 14 14 14 17 18 19 20 22 22 20 19 19 18 17 15 16 17 21 17 16
13 16 18 18 19 18 17 18 18 17 17 16 14 14 14 17 20 20 21 22 20 21 21 22 20 18 18 16 15 22 25 23 14
14 19 19 19 19 22 25 24 21 20 17 15 15 14 14 14 15 15 17 18 18 21 21 22 24 22 22 21 21 27 26 26 18
15 16 17 21 22 24 27 30 30 26 22 18 16 15 15 16 14 12 13 15 14 16 17 18 18 26 32 31 23 30 26 29 23
19 21 26 23 24 26 28 28 30 29 25 23 20 19 17 17 17 16 14 14 14 14 17 18 20 20 21 29 25 32 29 28 25
25 25 29 30 25 25 29 29 28 31 28 25 26 24 23 22 21 20 19 18 17 16 15 17 18 13 14 25 35 37 44 43 36
30 24 25 27 27 29 28 27 25 25 27 30 30 29 26 25 23 19 21 19 18 17 18 17 16 18 20 30 37 40 39 43 43
36 29 26 25 30 30 32 28 28 27 31 32 32 31 31 29 28 27 25 22 21 20 nan nan 20 20 25 30 29 30 30 32 nan
41 34 29 30 36 36 36 35 30 32 32 32 32 34 35 35 30 30 29 nan nan nan nan nan nan nan 26 28 nan nan nan nan nan
37 37 37 31 34 36 39 42 35 34 31 32 32 36 37 36 36 31 nan nan nan nan nan nan nan nan nan nan nan nan nan nan nan
38 33 31 31 31 36 42 45 36 32 33 30 33 36 36 34 36 38 nan nan nan nan nan nan nan nan nan nan nan nan nan nan nan
36 29 30 26 30 48 51 48 37 31 31 34 30 32 35 nan nan nan nan nan nan nan nan nan nan nan nan nan nan nan nan nan nan
Wind_Direction
345 354 346 332 344 345 336 348 344 337 335 353 347 350 318 250 206 204 200 190 171 194 180 194 212 204 180 188 195 202 182 167 150
346 350 356 355 343 350 352 326 344 321 310 327 331 347 325 265 203 208 223 197 198 187 188 191 211 203 196 208 217 228 198 170 175
325 350 352 358 353 341 331 331 327 330 307 307 295 327 328 305 261 230 218 228 208 192 193 206 216 210 212 214 216 223 223 222 243
308 325 348 345 347 351 338 324 322 322 318 310 274 280 306 305 256 251 238 225 218 208 200 203 214 218 210 214 226 235 238 220 219
312 312 334 340 334 338 337 334 329 305 315 300 263 276 288 297 293 261 263 247 233 216 218 214 219 220 216 218 226 237 253 237 246
307 312 324 331 331 330 335 330 326 325 302 301 283 279 283 274 273 273 236 259 260 250 237 239 231 242 236 235 240 245 254 257 254
315 307 315 325 315 320 325 322 324 324 315 308 294 287 289 274 227 249 258 240 251 252 254 249 246 234 238 253 261 265 267 273 269
304 311 328 331 320 311 309 304 299 305 311 309 300 297 286 265 223 246 255 248 242 242 245 251 242 243 239 240 244 257 275 273 279
335 305 307 317 306 299 302 296 291 289 292 298 306 299 286 264 256 262 263 268 263 266 260 250 243 239 241 238 240 255 264 261 276
302 310 304 295 293 283 289 303 306 300 293 287 286 289 284 275 267 267 269 267 268 270 263 247 248 250 246 240 238 252 264 271 258
295 305 293 280 273 271 274 287 300 299 298 295 289 286 294 295 292 287 278 274 270 259 261 258 262 259 249 246 244 255 259 265 257
264 271 275 259 258 271 273 277 283 289 298 304 300 297 295 297 298 297 289 280 275 263 263 266 268 273 253 242 245 261 258 262 260
259 271 278 274 269 275 273 273 279 285 291 299 304 296 289 280 282 285 285 283 277 266 263 268 267 297 241 221 235 262 261 258 257
236 256 275 276 266 269 275 275 279 279 284 286 286 289 284 280 280 280 281 285 283 279 271 273 277 263 242 237 246 254 260 258 264
231 230 258 275 276 270 277 279 278 283 280 277 274 277 280 276 273 268 271 270 268 272 277 276 266 277 264 256 260 262 259 260 258
215 220 237 257 269 270 272 282 273 276 273 273 274 275 274 271 270 269 264 260 264 274 nan nan 273 262 267 263 263 262 259 259 nan
214 226 233 249 261 265 267 272 273 268 277 280 276 273 272 272 273 270 266 nan nan nan nan nan nan nan 274 270 nan nan nan nan nan
221 230 236 247 261 261 265 268 275 276 284 287 280 277 275 274 273 274 nan nan nan nan nan nan nan nan nan nan nan nan nan nan nan
214 225 236 238 253 262 261 268 278 273 284 287 280 275 273 274 278 281 nan nan nan nan nan nan nan nan nan nan nan nan nan nan nan
207 224 234 244 248 238 246 254 258 259 267 273 272 269 273 nan nan nan nan nan nan nan nan nan nan nan nan nan nan nan nan nan nan